Hourly Weather Allanton

Today, 8 March, Monday

Time Temperature Precipitation Wind Pressure Humidity
00:00 +4°C° 0 mm 4 mps 760 mmHg 87%
01:00 +4°C° 0.2 mm 4 mps 759 mmHg 88%
02:00 +3°C° 0.2 mm 5 mps 759 mmHg 90%
03:00 +3°C° 0.2 mm 5 mps 758 mmHg 92%
04:00 +3°C° 0.5 mm 5 mps 758 mmHg 92%
05:00 +3°C° 0.5 mm 5 mps 758 mmHg 93%
06:00 +5°C° 0 mm 5 mps 758 mmHg 94%
07:00 +5°C° 0.1 mm 5 mps 757 mmHg 92%
08:00 +5°C° 0.1 mm 6 mps 757 mmHg 91%
09:00 +5°C° 0.1 mm 6 mps 757 mmHg 89%
10:00 +5°C° 0.3 mm 6 mps 757 mmHg 88%
11:00 +7°C° 0.3 mm 6 mps 757 mmHg 86%
12:00 +7°C° 0.3 mm 6 mps 757 mmHg 84%
13:00 +8°C° 0.1 mm 6 mps 757 mmHg 82%
14:00 +8°C° 0.1 mm 6 mps 757 mmHg 81%
15:00 +8°C° 0.1 mm 6 mps 757 mmHg 79%
16:00 +7°C° 0 mm 6 mps 757 mmHg 83%
17:00 +6°C° 0 mm 5 mps 757 mmHg 86%
18:00 +5°C° 0 mm 4 mps 757 mmHg 90%
19:00 +5°C° 0 mm 4 mps 757 mmHg 90%
20:00 +4°C° 0 mm 4 mps 757 mmHg 91%
21:00 +4°C° 0 mm 4 mps 757 mmHg 92%
22:00 +4°C° 0 mm 4 mps 757 mmHg 92%
23:00 +4°C° 0 mm 3 mps 757 mmHg 92%

Tomorrow, 9 March, Tuesday

Time Temperature Precipitation Wind Pressure Humidity
00:00 +3°C° 0 mm 3 mps 757 mmHg 93%
01:00 +4°C° 0 mm 3 mps 757 mmHg 93%
02:00 +4°C° 0 mm 3 mps 756 mmHg 93%
03:00 +4°C° 0 mm 3 mps 756 mmHg 94%
04:00 +5°C° 0 mm 2 mps 756 mmHg 94%
05:00 +4°C° 0 mm 2 mps 756 mmHg 94%
06:00 +4°C° 0 mm 2 mps 755 mmHg 95%
07:00 +5°C° 0 mm 2 mps 755 mmHg 93%
08:00 +5°C° 0 mm 3 mps 755 mmHg 91%
09:00 +7°C° 0 mm 3 mps 755 mmHg 89%
10:00 +8°C° 0 mm 3 mps 755 mmHg 86%
11:00 +7°C° 0 mm 4 mps 755 mmHg 83%
12:00 +8°C° 0 mm 4 mps 754 mmHg 80%
13:00 +8°C° 0 mm 5 mps 754 mmHg 79%
14:00 +8°C° 0 mm 5 mps 753 mmHg 78%
15:00 +8°C° 0 mm 6 mps 752 mmHg 76%
16:00 +7°C° 0 mm 6 mps 752 mmHg 79%
17:00 +7°C° 0 mm 6 mps 751 mmHg 82%
18:00 +7°C° 0 mm 6 mps 751 mmHg 85%
19:00 +5°C° 0 mm 6 mps 750 mmHg 84%
20:00 +5°C° 0 mm 7 mps 749 mmHg 84%
21:00 +5°C° 0 mm 8 mps 748 mmHg 83%
22:00 +5°C° 0.2 mm 8 mps 747 mmHg 84%
23:00 +5°C° 0.2 mm 9 mps 746 mmHg 85%

Day after tomorrow, 10 March, Wednesday

Time Temperature Precipitation Wind Pressure Humidity
00:00 +5°C° 0.2 mm 10 mps 745 mmHg 85%
01:00 +5°C° 0.3 mm 10 mps 744 mmHg 86%
02:00 +5°C° 0.3 mm 10 mps 744 mmHg 86%
03:00 +6°C° 0.3 mm 10 mps 743 mmHg 87%
04:00 +5°C° 0.2 mm 8 mps 743 mmHg 85%
05:00 +4°C° 0.2 mm 6 mps 743 mmHg 83%
06:00 +4°C° 0.2 mm 4 mps 744 mmHg 82%
07:00 +3°C° 0 mm 5 mps 744 mmHg 79%
08:00 +3°C° 0 mm 5 mps 744 mmHg 77%
09:00 +3°C° 0 mm 5 mps 744 mmHg 74%
10:00 +5°C° 0 mm 5 mps 744 mmHg 72%
11:00 +5°C° 0 mm 5 mps 744 mmHg 69%
12:00 +5°C° 0 mm 6 mps 744 mmHg 67%
13:00 +5°C° 0 mm 6 mps 743 mmHg 70%
14:00 +5°C° 0 mm 6 mps 741 mmHg 73%
15:00 +5°C° 0 mm 6 mps 740 mmHg 76%
16:00 +5°C° 0.4 mm 7 mps 739 mmHg 81%
17:00 +5°C° 0.4 mm 7 mps 737 mmHg 86%
18:00 +5°C° 0.4 mm 7 mps 735 mmHg 91%
19:00 +6°C° 0.8 mm 8 mps 733 mmHg 91%
20:00 +7°C° 0.8 mm 8 mps 732 mmHg 90%
21:00 +8°C° 0.8 mm 9 mps 731 mmHg 90%
22:00 +7°C° 0.5 mm 9 mps 730 mmHg 86%
23:00 +6°C° 0.5 mm 10 mps 730 mmHg 82%

11 March, Thursday

Time Temperature Precipitation Wind Pressure Humidity
00:00 +5°C° 0.5 mm 10 mps 729 mmHg 78%
01:00 +4°C° 0.1 mm 11 mps 728 mmHg 79%
02:00 +4°C° 0.1 mm 11 mps 727 mmHg 81%
03:00 +3°C° 0.1 mm 12 mps 726 mmHg 83%
04:00 +4°C° 0.7 mm 12 mps 724 mmHg 84%
05:00 +4°C° 0.7 mm 13 mps 723 mmHg 85%
06:00 +4°C° 0.7 mm 13 mps 722 mmHg 87%
07:00 +3°C° 0.3 mm 14 mps 723 mmHg 84%
08:00 +2°C° 0.3 mm 15 mps 724 mmHg 81%
09:00 +2°C° 0.3 mm 15 mps 725 mmHg 79%
10:00 +3°C° 0 mm 14 mps 727 mmHg 74%
11:00 +4°C° 0 mm 13 mps 729 mmHg 68%
12:00 +4°C° 0 mm 12 mps 730 mmHg 63%
13:00 +4°C° 0.1 mm 12 mps 731 mmHg 61%
14:00 +4°C° 0.1 mm 12 mps 732 mmHg 59%
15:00 +4°C° 0.1 mm 11 mps 732 mmHg 58%
16:00 +3°C° 0 mm 11 mps 733 mmHg 62%
17:00 +2°C° 0 mm 11 mps 733 mmHg 66%
18:00 +1°C° 0 mm 11 mps 733 mmHg 70%
19:00 -1°C° 0.4 mm 11 mps 734 mmHg 77%
20:00 -1°C° 0.4 mm 12 mps 734 mmHg 84%
21:00 -1°C° 0.4 mm 12 mps 735 mmHg 91%
22:00 -1°C° 0.3 mm 12 mps 735 mmHg 90%
23:00 -1°C° 0.3 mm 12 mps 735 mmHg 89%

12 March, Friday

Time Temperature Precipitation Wind Pressure Humidity
00:00 -1°C° 0.3 mm 12 mps 736 mmHg 88%
01:00 -1°C° 0.1 mm 11 mps 736 mmHg 87%
02:00 +1°C° 0.1 mm 11 mps 736 mmHg 87%
03:00 +1°C° 0.1 mm 11 mps 736 mmHg 86%
04:00 +1°C° 0 mm 10 mps 736 mmHg 86%
05:00 0°C° 0 mm 9 mps 736 mmHg 85%
06:00 0°C° 0 mm 8 mps 736 mmHg 85%
07:00 +1°C° 0 mm 9 mps 736 mmHg 83%
08:00 +1°C° 0 mm 9 mps 737 mmHg 81%
09:00 +2°C° 0 mm 9 mps 737 mmHg 79%
10:00 +2°C° 0 mm 9 mps 737 mmHg 76%
11:00 +3°C° 0 mm 9 mps 737 mmHg 74%
12:00 +3°C° 0 mm 9 mps 737 mmHg 71%
13:00 +5°C° 0 mm 9 mps 737 mmHg 70%
14:00 +5°C° 0 mm 9 mps 738 mmHg 68%
15:00 +5°C° 0 mm 9 mps 738 mmHg 67%
16:00 +4°C° 0 mm 8 mps 738 mmHg 70%
17:00 +2°C° 0 mm 8 mps 738 mmHg 73%
18:00 +2°C° 0 mm 7 mps 738 mmHg 76%
19:00 0°C° 0 mm 8 mps 739 mmHg 77%
20:00 0°C° 0 mm 8 mps 739 mmHg 78%
21:00 -1°C° 0 mm 8 mps 739 mmHg 80%
22:00 -1°C° 0 mm 8 mps 739 mmHg 82%
23:00 -1°C° 0 mm 8 mps 739 mmHg 84%

13 March, Saturday

Time Temperature Precipitation Wind Pressure Humidity
00:00 -1°C° 0 mm 8 mps 739 mmHg 87%
01:00 -1°C° 0 mm 8 mps 739 mmHg 86%
02:00 0°C° 0 mm 8 mps 738 mmHg 86%
03:00 0°C° 0 mm 8 mps 738 mmHg 86%
04:00 0°C° 0 mm 7 mps 738 mmHg 87%
05:00 +2°C° 0 mm 7 mps 737 mmHg 87%
06:00 +3°C° 0 mm 7 mps 737 mmHg 88%
07:00 +3°C° 0.1 mm 7 mps 737 mmHg 87%
08:00 +3°C° 0.1 mm 7 mps 736 mmHg 87%
09:00 +2°C° 0.1 mm 8 mps 736 mmHg 86%
10:00 +3°C° 0.3 mm 9 mps 736 mmHg 82%
11:00 +5°C° 0.3 mm 9 mps 736 mmHg 77%
12:00 +5°C° 0.3 mm 10 mps 736 mmHg 73%
13:00 +4°C° 0.1 mm 11 mps 736 mmHg 73%
14:00 +3°C° 0.1 mm 11 mps 736 mmHg 73%
15:00 +3°C° 0.1 mm 12 mps 736 mmHg 74%
16:00 +2°C° 0 mm 12 mps 736 mmHg 71%
17:00 +2°C° 0 mm 12 mps 736 mmHg 68%
18:00 0°C° 0 mm 12 mps 736 mmHg 65%
19:00 0°C° 0 mm 12 mps 736 mmHg 67%
20:00 -1°C° 0 mm 11 mps 737 mmHg 68%
21:00 -1°C° 0 mm 11 mps 737 mmHg 69%
22:00 -2°C° 0 mm 11 mps 738 mmHg 73%
23:00 -2°C° 0 mm 10 mps 738 mmHg 77%
Show more